,,,PA_Meas_PMT16A,,PR_Meas_QMR101_102,,RH_Meas_QMH101,,SR_Meas_QMS101,,TA_Meas_QMH101,,GenWind,,GenWind,
date,time,status,PA,status,PR,status,RH,status,SR,status,TA,status,DirAvg,status,SpdAvg,
2008-11-02, 00:00:05,VALID,1009.79,VALID,0,VALID,94.0027,VALID,0,VALID,24.0837,VALID,60,VALID,0.632422,
2008-11-02, 00:01:05,VALID,1009.79,VALID,0,VALID,94.1094,VALID,0,VALID,24.1032,VALID,54,VALID,0.725781,
2008-11-02, 00:02:05,VALID,1009.76,VALID,0,VALID,94.1552,VALID,0,VALID,24.1032,VALID,55,VALID,0.639453,
2008-11-02, 00:03:05,VALID,1009.77,VALID,0,VALID,94.1704,VALID,0,VALID,24.1051,VALID,54,VALID,0.724609,
2008-11-02, 00:04:05,VALID,1009.75,VALID,0,VALID,94.1399,VALID,0,VALID,24.0448,VALID,31,VALID,0.419531,
2008-11-02, 00:05:05,VALID,1009.75,VALID,0,VALID,94.1171,VALID,0,VALID,24.0253,VALID,31,VALID,0.291797,
2008-11-02, 00:06:05,VALID,1009.76,VALID,0,VALID,94.1171,VALID,0,VALID,24.0253,VALID,31,VALID,0.0375,
2008-11-02, 00:07:05,VALID,1009.78,VALID,0,VALID,94.1323,VALID,0,VALID,24.0253,VALID,79,VALID,0.401172,
2008-11-02, 00:08:05,VALID,1009.78,VALID,0,VALID,94.1476,VALID,0.105969,VALID,24.004,VALID,75,VALID,0.248437,
2008-11-02, 00:09:05,VALID,1009.82,VALID,0,VALID,94.1781,VALID,0.105969,VALID,24.004,VALID,75,VALID,0.312891,
2008-11-02, 00:10:05,VALID,1009.8,VALID,0,VALID,94.2086,VALID,0,VALID,24.004,VALID,75,VALID,0.336719,
2008-11-02, 00:11:05,VALID,1009.81,VALID,0,VALID,94.1933,VALID,0.105969,VALID,24.0235,VALID,75,VALID,0.221484,
2008-11-02, 00:12:05,VALID,1009.82,VALID,0,VALID,94.2238,VALID,0.105969,VALID,24.0235,VALID,75,VALID,0.160547,
2008-11-02, 00:13:05,VALID,1009.81,VALID,0,VALID,94.2924,VALID,0,VALID,24.0624,VALID,85,VALID,0.686328,
2008-11-02, 00:14:05,VALID,1009.8,VALID,0,VALID,94.3687,VALID,0.105969,VALID,24.1014,VALID,88,VALID,0.291406,
2008-11-02, 00:15:05,VALID,1009.79,VALID,0,VALID,94.3687,VALID,0.105969,VALID,24.1209,VALID,88,VALID,0.280469,
2008-11-02, 00:16:05,VALID,1009.78,VALID,0,VALID,94.3687,VALID,0.105969,VALID,24.1209,VALID,88,VALID,0.078125,
2008-11-02, 00:17:05,VALID,1009.81,VALID,0,VALID,94.3611,VALID,0.105969,VALID,24.1404,VALID,88,VALID,0,
2008-11-02, 00:18:05,VALID,1009.77,VALID,0,VALID,94.3382,VALID,0,VALID,24.1404,VALID,88,VALID,0.0046875,
2008-11-02, 00:19:05,VALID,1009.76,VALID,0,VALID,94.3229,VALID,0.105969,VALID,24.1209,VALID,88,VALID,0,
2008-11-02, 00:20:05,VALID,1009.77,VALID,0,VALID,94.3306,VALID,0.105969,VALID,24.1599,VALID,88,VALID,0.184375,
2008-11-02, 00:21:05,VALID,1009.73,VALID,0,VALID,94.2848,VALID,0,VALID,24.1599,VALID,136,VALID,0.478906,
2008-11-02, 00:22:05,VALID,1009.75,VALID,0,VALID,94.2314,VALID,0,VALID,24.1599,VALID,149,VALID,0.541016,
2008-11-02, 00:23:05,VALID,1009.76,VALID,0,VALID,94.1857,VALID,0,VALID,24.1812,VALID,161,VALID,0.427344,
2008-11-02, 00:24:05,VALID,1009.77,VALID,0,VALID,94.1399,VALID,0,VALID,24.1812,VALID,161,VALID,0.376953,
2008-11-02, 00:25:05,VALID,1009.79,VALID,0,VALID,94.1018,VALID,0,VALID,24.2025,VALID,161,VALID,0.464453,
2008-11-02, 00:26:05,VALID,1009.81,VALID,0,VALID,94.0713,VALID,0,VALID,24.1812,VALID,161,VALID,0.392969,
2008-11-02, 00:27:05,VALID,1009.83,VALID,0,VALID,94.0484,VALID,0,VALID,24.2025,VALID,161,VALID,0.504687,
2008-11-02, 00:28:05,VALID,1009.86,VALID,0,VALID,94.0408,VALID,0,VALID,24.1812,VALID,161,VALID,0.449609,
2008-11-02, 00:29:05,VALID,1009.86,VALID,0,VALID,94.0103,VALID,0,VALID,24.1812,VALID,161,VALID,0.405859,
2008-11-02, 00:30:05,VALID,1009.88,VALID,0,VALID,94.0027,VALID,0,VALID,24.1812,VALID,161,VALID,0.328125,
2008-11-02, 00:31:05,VALID,1009.85,VALID,0,VALID,93.9645,VALID,0,VALID,24.1812,VALID,161,VALID,0.124609,
2008-11-02, 00:32:05,VALID,1009.87,VALID,0,VALID,93.9569,VALID,0,VALID,24.1812,VALID,161,VALID,0.0164062,
2008-11-02, 00:33:05,VALID,1009.84,VALID,0,VALID,93.9722,VALID,0,VALID,24.2202,VALID,161,VALID,0,
2008-11-02, 00:34:05,VALID,1009.84,VALID,0,VALID,93.9417,VALID,0,VALID,24.2007,VALID,161,VALID,0,
2008-11-02, 00:35:05,VALID,1009.82,VALID,0,VALID,93.9569,VALID,0,VALID,24.222,VALID,161,VALID,0,
2008-11-02, 00:36:05,VALID,1009.84,VALID,0,VALID,93.934,VALID,0,VALID,24.2202,VALID,161,VALID,0,
2008-11-02, 00:37:05,VALID,1009.84,VALID,0,VALID,93.9188,VALID,0,VALID,24.2415,VALID,161,VALID,0,
2008-11-02, 00:38:05,VALID,1009.85,VALID,0,VALID,93.873,VALID,0,VALID,24.2183,VALID,161,VALID,0,
2008-11-02, 00:39:05,VALID,1009.89,VALID,0,VALID,93.8807,VALID,0,VALID,24.2202,VALID,161,VALID,0.357422,
2008-11-02, 00:40:05,VALID,1009.9,VALID,0,VALID,93.7891,VALID,0,VALID,24.2396,VALID,161,VALID,0.431641,
2008-11-02, 00:41:05,VALID,1009.93,VALID,0,VALID,93.751,VALID,0,VALID,24.2202,VALID,161,VALID,0.396875,
2008-11-02, 00:42:05,VALID,1009.92,VALID,0,VALID,93.7129,VALID,0,VALID,24.2202,VALID,161,VALID,0.294922,
2008-11-02, 00:43:05,VALID,1009.94,VALID,0,VALID,93.751,VALID,0,VALID,24.2007,VALID,160,VALID,0.356641,
2008-11-02, 00:44:05,VALID,1009.9,VALID,0,VALID,93.7358,VALID,0,VALID,24.2007,VALID,153,VALID,0.332422,
2008-11-02, 00:45:05,VALID,1009.88,VALID,0,VALID,93.7358,VALID,0,VALID,24.2007,VALID,149,VALID,0.227344,
2008-11-02, 00:46:05,VALID,1009.85,VALID,0,VALID,93.7358,VALID,0,VALID,24.2007,VALID,141,VALID,0.342187,
2008-11-02, 00:47:05,VALID,1009.87,VALID,0,VALID,93.7358,VALID,0,VALID,24.2202,VALID,141,VALID,0.178906,
2008-11-02, 00:48:05,VALID,1009.85,VALID,0,VALID,93.7129,VALID,0,VALID,24.2202,VALID,124,VALID,0.185547,
2008-11-02, 00:49:05,VALID,1009.85,VALID,0,VALID,93.7434,VALID,0,VALID,24.261,VALID,124,VALID,0,
2008-11-02, 00:50:05,VALID,1009.82,VALID,0,VALID,93.6824,VALID,0,VALID,24.2415,VALID,124,VALID,0.009375,
2008-11-02, 00:51:05,VALID,1009.81,VALID,0,VALID,93.629,VALID,0,VALID,24.2007,VALID,124,VALID,0.0691406,
2008-11-02, 00:52:05,VALID,1009.79,VALID,0,VALID,93.6061,VALID,0,VALID,24.2007,VALID,124,VALID,0.209766,
2008-11-02, 00:53:05,VALID,1009.78,VALID,0,VALID,93.5756,VALID,0,VALID,24.2202,VALID,123,VALID,0.0824219,
2008-11-02, 00:54:05,VALID,1009.76,VALID,0,VALID,93.4994,VALID,0,VALID,24.2007,VALID,84,VALID,0.304688,
2008-11-02, 00:55:05,VALID,1009.76,VALID,0,VALID,93.446,VALID,0,VALID,24.1812,VALID,55,VALID,0.478516,
2008-11-02, 00:56:05,VALID,1009.71,VALID,0,VALID,93.4155,VALID,0,VALID,24.2025,VALID,55,VALID,0.269141,
2008-11-02, 00:57:05,VALID,1009.69,VALID,0,VALID,93.4155,VALID,0,VALID,24.1422,VALID,55,VALID,0.219922,
2008-11-02, 00:58:05,VALID,1009.66,VALID,0,VALID,93.4384,VALID,0,VALID,24.1617,VALID,51,VALID,0.382031,
2008-11-02, 00:59:05,VALID,1009.66,VALID,0,VALID,93.4536,VALID,0,VALID,24.1227,VALID,27,VALID,0.48125,
2008-11-02, 01:00:05,VALID,1009.64,VALID,0,VALID,93.507,VALID,0,VALID,24.1227,VALID,15,VALID,0.545313,
2008-11-02, 01:01:05,VALID,1009.65,VALID,0,VALID,93.5604,VALID,0,VALID,24.0643,VALID,5,VALID,0.493359,
2008-11-02, 01:02:05,VALID,1009.61,VALID,0,VALID,93.629,VALID,0,VALID,24.0837,VALID,356,VALID,0.560156,
2008-11-02, 01:03:05,VALID,1009.62,VALID,0,VALID,93.6595,VALID,0,VALID,24.0448,VALID,342,VALID,0.557813,
2008-11-02, 01:04:05,VALID,1009.62,VALID,0,VALID,93.6824,VALID,0,VALID,24.0448,VALID,355,VALID,0.55625,
2008-11-02, 01:05:05,VALID,1009.58,VALID,0,VALID,93.6748,VALID,0,VALID,24.0253,VALID,355,VALID,0.456641,
2008-11-02, 01:06:05,VALID,1009.58,VALID,0,VALID,93.6519,VALID,0,VALID,24.0058,VALID,355,VALID,0.39375,
2008-11-02, 01:07:05,VALID,1009.57,VALID,0,VALID,93.6824,VALID,0,VALID,23.9668,VALID,355,VALID,0.380859,
2008-11-02, 01:08:05,VALID,1009.54,VALID,0,VALID,93.6442,VALID,0,VALID,23.9278,VALID,355,VALID,0.399219,
2008-11-02, 01:09:05,VALID,1009.53,VALID,0,VALID,93.7053,VALID,0,VALID,23.8889,VALID,38,VALID,0.491797,
2008-11-02, 01:10:05,VALID,1009.53,VALID,0,VALID,93.7968,VALID,0,VALID,23.8694,VALID,38,VALID,0.401953,
2008-11-02, 01:11:05,VALID,1009.51,VALID,0,VALID,93.873,VALID,0,VALID,23.8499,VALID,38,VALID,0.294531,
2008-11-02, 01:12:05,VALID,1009.49,VALID,0,VALID,93.9417,VALID,0,VALID,23.8499,VALID,38,VALID,0.258984,
2008-11-02, 01:13:05,VALID,1009.5,VALID,0,VALID,94.0484,VALID,0,VALID,23.8499,VALID,38,VALID,0.259766,
2008-11-02, 01:14:05,VALID,1009.48,VALID,0,VALID,94.1399,VALID,0,VALID,23.8499,VALID,60,VALID,0.284766,
2008-11-02, 01:15:05,VALID,1009.44,VALID,0,VALID,94.2009,VALID,0,VALID,23.8499,VALID,55,VALID,0.190625,
2008-11-02, 01:16:05,VALID,1009.44,VALID,0,VALID,94.2543,VALID,0,VALID,23.8499,VALID,55,VALID,0.152344,
2008-11-02, 01:17:05,VALID,1009.39,VALID,0,VALID,94.2543,VALID,0,VALID,23.8304,VALID,55,VALID,0,
2008-11-02, 01:18:05,VALID,1009.37,VALID,0,VALID,94.2924,VALID,0,VALID,23.8499,VALID,55,VALID,0,
2008-11-02, 01:19:05,VALID,1009.34,VALID,0,VALID,94.3077,VALID,0,VALID,23.8499,VALID,55,VALID,0,
2008-11-02, 01:20:05,VALID,1009.33,VALID,0,VALID,94.3229,VALID,0,VALID,23.8694,VALID,55,VALID,0,
2008-11-02, 01:21:05,VALID,1009.29,VALID,0,VALID,94.3458,VALID,0,VALID,23.8499,VALID,55,VALID,0.139453,
2008-11-02, 01:22:05,VALID,1009.28,VALID,0,VALID,94.3534,VALID,0,VALID,23.8499,VALID,55,VALID,0.0828125,
2008-11-02, 01:23:05,VALID,1009.25,VALID,0,VALID,94.3382,VALID,0,VALID,23.8499,VALID,55,VALID,0.185937,
2008-11-02, 01:24:05,VALID,1009.23,VALID,0,VALID,94.3382,VALID,0,VALID,23.8499,VALID,43,VALID,0.346094,
2008-11-02, 01:25:05,VALID,1009.23,VALID,0,VALID,94.3153,VALID,0,VALID,23.8499,VALID,36,VALID,0.369531,
2008-11-02, 01:26:05,VALID,1009.19,VALID,0,VALID,94.3153,VALID,0,VALID,23.8304,VALID,24,VALID,0.207422,
2008-11-02, 01:27:05,VALID,1009.2,VALID,0,VALID,94.3077,VALID,0,VALID,23.8499,VALID,24,VALID,0.181641,
2008-11-02, 01:28:05,VALID,1009.16,VALID,0,VALID,94.3001,VALID,0,VALID,23.8109,VALID,24,VALID,0.00234375,
2008-11-02, 01:29:05,VALID,1009.15,VALID,0,VALID,94.2924,VALID,0,VALID,23.7896,VALID,24,VALID,0.0535156,
2008-11-02, 01:30:05,VALID,1009.14,VALID,0,VALID,94.2924,VALID,0,VALID,23.7914,VALID,24,VALID,0,
2008-11-02, 01:31:05,VALID,1009.12,VALID,0,VALID,94.2772,VALID,0,VALID,23.772,VALID,24,VALID,0,
2008-11-02, 01:32:05,VALID,1009.11,VALID,0,VALID,94.2619,VALID,0,VALID,23.7312,VALID,24,VALID,0,
2008-11-02, 01:33:05,VALID,1009.1,VALID,0,VALID,94.2619,VALID,0,VALID,23.7738,VALID,24,VALID,0,
2008-11-02, 01:34:05,VALID,1009.07,VALID,0,VALID,94.2772,VALID,0,VALID,23.7135,VALID,24,VALID,0,
2008-11-02, 01:35:05,VALID,1009.11,VALID,0,VALID,94.2924,VALID,0,VALID,23.733,VALID,24,VALID,0,
2008-11-02, 01:36:05,VALID,1009.09,VALID,0,VALID,94.2924,VALID,0,VALID,23.7135,VALID,24,VALID,0,
2008-11-02, 01:37:05,VALID,1009.1,VALID,0,VALID,94.3229,VALID,0,VALID,23.694,VALID,24,VALID,0,
2008-11-02, 01:38:05,VALID,1009.09,VALID,0,VALID,94.3458,VALID,0,VALID,23.6745,VALID,24,VALID,0,
2008-11-02, 01:39:05,VALID,1009.07,VALID,0,VALID,94.3763,VALID,0,VALID,23.6745,VALID,24,VALID,0,
2008-11-02, 01:40:05,VALID,1009.09,VALID,0,VALID,94.3992,VALID,0,VALID,23.6745,VALID,24,VALID,0,
2008-11-02, 01:41:05,VALID,1009.08,VALID,0,VALID,94.4145,VALID,0,VALID,23.6958,VALID,24,VALID,0,
2008-11-02, 01:42:05,VALID,1009.1,VALID,0,VALID,94.4526,VALID,0,VALID,23.6356,VALID,39,VALID,0.244922,
2008-11-02, 01:43:05,VALID,1009.11,VALID,0,VALID,94.4678,VALID,0,VALID,23.6568,VALID,40,VALID,0.0863281,
2008-11-02, 01:44:05,VALID,1009.11,VALID,0,VALID,94.4526,VALID,0,VALID,23.6161,VALID,39,VALID,0.053125,
2008-11-02, 01:45:05,VALID,1009.11,VALID,0,VALID,94.4678,VALID,0,VALID,23.6161,VALID,39,VALID,0,
2008-11-02, 01:46:05,VALID,1009.12,VALID,0,VALID,94.506,VALID,0,VALID,23.6161,VALID,40,VALID,0,
2008-11-02, 01:47:05,VALID,1009.13,VALID,0,VALID,94.5288,VALID,0,VALID,23.5966,VALID,40,VALID,0,
2008-11-02, 01:48:05,VALID,1009.14,VALID,0,VALID,94.5212,VALID,0,VALID,23.5771,VALID,40,VALID,0.0550781,
2008-11-02, 01:49:05,VALID,1009.13,VALID,0,VALID,94.5822,VALID,0,VALID,23.6161,VALID,40,VALID,0.0457031,
2008-11-02, 01:50:05,VALID,1009.13,VALID,0,VALID,94.5975,VALID,0,VALID,23.6356,VALID,40,VALID,0.096875,
2008-11-02, 01:51:05,VALID,1009.12,VALID,0,VALID,94.6585,VALID,0,VALID,23.6338,VALID,28,VALID,0.216797,
2008-11-02, 01:52:05,VALID,1009.14,VALID,0,VALID,94.6661,VALID,0,VALID,23.6745,VALID,28,VALID,0.0078125,
2008-11-02, 01:53:05,VALID,1009.14,VALID,0,VALID,94.6508,VALID,0,VALID,23.6745,VALID,28,VALID,0,
2008-11-02, 01:54:05,VALID,1009.14,VALID,0,VALID,94.6585,VALID,0,VALID,23.655,VALID,28,VALID,0.00429688,
2008-11-02, 01:55:05,VALID,1009.15,VALID,0,VALID,94.6737,VALID,0,VALID,23.6745,VALID,28,VALID,0.00351562,
2008-11-02, 01:56:05,VALID,1009.13,VALID,0,VALID,94.6585,VALID,0,VALID,23.6745,VALID,28,VALID,0.015625,
2008-11-02, 01:57:05,VALID,1009.14,VALID,0,VALID,94.6203,VALID,0,VALID,23.6745,VALID,28,VALID,0.0046875,
2008-11-02, 01:58:05,VALID,1009.14,VALID,0,VALID,94.6203,VALID,0,VALID,23.655,VALID,28,VALID,0.109766,
2008-11-02, 01:59:05,VALID,1009.15,VALID,0,VALID,94.5822,VALID,0,VALID,23.6745,VALID,28,VALID,0,
2008-11-02, 02:00:05,VALID,1009.16,VALID,0,VALID,94.5746,VALID,0,VALID,23.655,VALID,28,VALID,0,
2008-11-02, 02:01:05,VALID,1009.15,VALID,0,VALID,94.5593,VALID,0,VALID,23.655,VALID,28,VALID,0,
2008-11-02, 02:02:05,VALID,1009.15,VALID,0,VALID,94.5441,VALID,0,VALID,23.655,VALID,28,VALID,0,
2008-11-02, 02:03:05,VALID,1009.13,VALID,0,VALID,94.5441,VALID,0,VALID,23.655,VALID,28,VALID,0,
2008-11-02, 02:04:05,VALID,1009.16,VALID,0,VALID,94.5365,VALID,0,VALID,23.655,VALID,28,VALID,0,
2008-11-02, 02:05:05,VALID,1009.08,VALID,0,VALID,94.5441,VALID,0,VALID,23.655,VALID,28,VALID,0,
2008-11-02, 02:06:05,VALID,1009.1,VALID,0,VALID,94.5212,VALID,0,VALID,23.655,VALID,28,VALID,0,
2008-11-02, 02:07:05,VALID,1009.09,VALID,0,VALID,94.5288,VALID,0,VALID,23.6532,VALID,28,VALID,0,
2008-11-02, 02:08:05,VALID,1009.1,VALID,0,VALID,94.5365,VALID,0,VALID,23.6745,VALID,28,VALID,0,
2008-11-02, 02:09:05,VALID,1009.08,VALID,0,VALID,94.5212,VALID,0,VALID,23.6745,VALID,28,VALID,0.28125,
2008-11-02, 02:10:05,VALID,1009.09,VALID,0,VALID,94.5288,VALID,0,VALID,23.6745,VALID,28,VALID,0.352734,
2008-11-02, 02:11:05,VALID,1009.07,VALID,0,VALID,94.5136,VALID,0,VALID,23.655,VALID,28,VALID,0.355078,
2008-11-02, 02:12:05,VALID,1009.07,VALID,0,VALID,94.4983,VALID,0,VALID,23.655,VALID,28,VALID,0.370703,
2008-11-02, 02:13:05,VALID,1009.09,VALID,0,VALID,94.506,VALID,0,VALID,23.6356,VALID,28,VALID,0.416016,
2008-11-02, 02:14:05,VALID,1009.06,VALID,0,VALID,94.506,VALID,0,VALID,23.655,VALID,28,VALID,0.405469,
2008-11-02, 02:15:04,VALID,1009.03,VALID,0,VALID,94.5212,VALID,0,VALID,23.6338,VALID,28,VALID,0.290234,
2008-11-02, 02:16:04,VALID,1009.05,VALID,0,VALID,94.5136,VALID,0,VALID,23.655,VALID,28,VALID,0.264844,
2008-11-02, 02:17:04,VALID,1009.06,VALID,0,VALID,94.4907,VALID,0,VALID,23.655,VALID,28,VALID,0,
2008-11-02, 02:18:04,VALID,1009.06,VALID,0,VALID,94.4907,VALID,0,VALID,23.6356,VALID,28,VALID,0,
2008-11-02, 02:19:04,VALID,1009.08,VALID,0,VALID,94.4297,VALID,0,VALID,23.6161,VALID,28,VALID,0,
2008-11-02, 02:20:04,VALID,1009.08,VALID,0,VALID,94.4068,VALID,0,VALID,23.6161,VALID,28,VALID,0,
2008-11-02, 02:21:04,VALID,1009.08,VALID,0,VALID,94.4068,VALID,0,VALID,23.5966,VALID,28,VALID,0,
2008-11-02, 02:22:04,VALID,1009.1,VALID,0,VALID,94.3763,VALID,0,VALID,23.5966,VALID,28,VALID,0,
2008-11-02, 02:23:04,VALID,1009.08,VALID,0,VALID,94.3458,VALID,0,VALID,23.5966,VALID,28,VALID,0,
2008-11-02, 02:24:04,VALID,1009.09,VALID,0,VALID,94.3611,VALID,0,VALID,23.5966,VALID,28,VALID,0,
2008-11-02, 02:25:04,VALID,1009.06,VALID,0,VALID,94.3763,VALID,0,VALID,23.6179,VALID,28,VALID,0,
2008-11-02, 02:26:04,VALID,1009.06,VALID,0,VALID,94.3916,VALID,0,VALID,23.6161,VALID,28,VALID,0,
2008-11-02, 02:27:04,VALID,1009.07,VALID,0,VALID,94.4145,VALID,0,VALID,23.5966,VALID,28,VALID,0,
2008-11-02, 02:28:04,VALID,1009.07,VALID,0,VALID,94.4526,VALID,0,VALID,23.6161,VALID,28,VALID,0,
2008-11-02, 02:29:04,VALID,1009.09,VALID,0,VALID,94.4373,VALID,0,VALID,23.5966,VALID,28,VALID,0,
2008-11-02, 02:30:04,VALID,1009.07,VALID,0,VALID,94.4297,VALID,0,VALID,23.6161,VALID,28,VALID,0,
2008-11-02, 02:31:04,VALID,1009.1,VALID,0,VALID,94.4602,VALID,0,VALID,23.5966,VALID,28,VALID,0,
2008-11-02, 02:32:04,VALID,1009.13,VALID,0,VALID,94.4678,VALID,0,VALID,23.6179,VALID,28,VALID,0,
2008-11-02, 02:33:04,VALID,1009.12,VALID,0,VALID,94.4755,VALID,0,VALID,23.5966,VALID,28,VALID,0,
2008-11-02, 02:34:04,VALID,1009.14,VALID,0,VALID,94.445,VALID,0,VALID,23.5771,VALID,28,VALID,0,
2008-11-02, 02:35:04,VALID,1009.12,VALID,0,VALID,94.4678,VALID,0,VALID,23.5966,VALID,28,VALID,0,
2008-11-02, 02:36:04,VALID,1009.13,VALID,0,VALID,94.4602,VALID,0,VALID,23.6179,VALID,28,VALID,0,
2008-11-02, 02:37:04,VALID,1009.15,VALID,0,VALID,94.4602,VALID,0,VALID,23.5771,VALID,28,VALID,0,
2008-11-02, 02:38:04,VALID,1009.15,VALID,0,VALID,94.4678,VALID,0.105969,VALID,23.5753,VALID,28,VALID,0,
2008-11-02, 02:39:04,VALID,1009.12,VALID,0,VALID,94.4602,VALID,0.105969,VALID,23.5753,VALID,28,VALID,0,
2008-11-02, 02:40:04,VALID,1009.13,VALID,0,VALID,94.4602,VALID,0.105969,VALID,23.5948,VALID,28,VALID,0,
2008-11-02, 02:41:04,VALID,1009.11,VALID,0,VALID,94.4831,VALID,0.105969,VALID,23.5948,VALID,38,VALID,0,
2008-11-02, 02:42:04,VALID,1009.11,VALID,0,VALID,94.4678,VALID,0.105969,VALID,23.6143,VALID,49,VALID,0,
2008-11-02, 02:43:04,VALID,1009.07,VALID,0,VALID,94.4755,VALID,0.105969,VALID,23.5948,VALID,49,VALID,0,
2008-11-02, 02:44:04,VALID,1009.08,VALID,0,VALID,94.4678,VALID,0.105969,VALID,23.6143,VALID,49,VALID,0,
2008-11-02, 02:45:04,VALID,1009.06,VALID,0,VALID,94.4297,VALID,0.105969,VALID,23.6143,VALID,50,VALID,0,
2008-11-02, 02:46:04,VALID,1009.02,VALID,0,VALID,94.3992,VALID,0,VALID,23.6143,VALID,50,VALID,0,
2008-11-02, 02:47:04,VALID,1009,VALID,0,VALID,94.3534,VALID,0.105969,VALID,23.5948,VALID,50,VALID,0,
2008-11-02, 02:48:04,VALID,1008.99,VALID,0,VALID,94.3306,VALID,0.105969,VALID,23.5753,VALID,50,VALID,0,
2008-11-02, 02:49:04,VALID,1009,VALID,0,VALID,94.3077,VALID,0,VALID,23.5753,VALID,50,VALID,0,
2008-11-02, 02:50:04,VALID,1009.01,VALID,0,VALID,94.3077,VALID,0.105969,VALID,23.5948,VALID,50,VALID,0,
2008-11-02, 02:51:04,VALID,1008.98,VALID,0,VALID,94.2772,VALID,0.105969,VALID,23.5753,VALID,50,VALID,0,
2008-11-02, 02:52:04,VALID,1008.97,VALID,0,VALID,94.2696,VALID,0.105969,VALID,23.5558,VALID,50,VALID,0,
2008-11-02, 02:53:04,VALID,1008.92,VALID,0,VALID,94.2848,VALID,0.105969,VALID,23.5558,VALID,50,VALID,0,
2008-11-02, 02:54:04,VALID,1008.91,VALID,0,VALID,94.2543,VALID,0.105969,VALID,23.5558,VALID,50,VALID,0,
2008-11-02, 02:55:04,VALID,1008.92,VALID,0,VALID,94.2619,VALID,0.105969,VALID,23.5558,VALID,50,VALID,0,
2008-11-02, 02:56:04,VALID,1008.91,VALID,0,VALID,94.2238,VALID,0.105969,VALID,23.5753,VALID,50,VALID,0,
2008-11-02, 02:57:04,VALID,1008.89,VALID,0,VALID,94.2162,VALID,0.105969,VALID,23.5558,VALID,50,VALID,0,
2008-11-02, 02:58:04,VALID,1008.88,VALID,0,VALID,94.2162,VALID,0.105969,VALID,23.5346,VALID,52,VALID,0.379297,
2008-11-02, 02:59:04,VALID,1008.88,VALID,0,VALID,94.1781,VALID,0.105969,VALID,23.5558,VALID,53,VALID,0.249219,
2008-11-02, 03:00:04,VALID,1008.92,VALID,0,VALID,94.1476,VALID,0.105969,VALID,23.5363,VALID,53,VALID,0.230859,
2008-11-02, 03:01:04,VALID,1008.88,VALID,0,VALID,94.1247,VALID,0.105969,VALID,23.4992,VALID,53,VALID,0,
2008-11-02, 03:02:04,VALID,1008.9,VALID,0,VALID,94.1094,VALID,0,VALID,23.4974,VALID,53,VALID,0,
2008-11-02, 03:03:04,VALID,1008.89,VALID,0,VALID,94.0789,VALID,0.105969,VALID,23.4584,VALID,53,VALID,0.238672,
2008-11-02, 03:04:04,VALID,1008.87,VALID,0,VALID,94.0637,VALID,0.105969,VALID,23.4584,VALID,53,VALID,0.241797,
2008-11-02, 03:05:04,VALID,1008.88,VALID,0,VALID,94.1018,VALID,0.105969,VALID,23.4194,VALID,53,VALID,0.288281,
2008-11-02, 03:06:04,VALID,1008.88,VALID,0,VALID,94.1094,VALID,0.105969,VALID,23.4389,VALID,53,VALID,0.308984,
2008-11-02, 03:07:04,VALID,1008.89,VALID,0,VALID,94.1933,VALID,0,VALID,23.4389,VALID,75,VALID,0.500391,
2008-11-02, 03:08:04,VALID,1008.9,VALID,0,VALID,94.2467,VALID,0,VALID,23.4389,VALID,79,VALID,0.187109,
2008-11-02, 03:09:04,VALID,1008.93,VALID,0,VALID,94.2924,VALID,0,VALID,23.4584,VALID,79,VALID,0.356641,
2008-11-02, 03:10:04,VALID,1008.93,VALID,0,VALID,94.3382,VALID,0,VALID,23.4992,VALID,79,VALID,0.123828,
2008-11-02, 03:11:04,VALID,1008.97,VALID,0,VALID,94.3306,VALID,0,VALID,23.4992,VALID,79,VALID,0.00429688,
2008-11-02, 03:12:04,VALID,1008.98,VALID,0,VALID,94.3458,VALID,0,VALID,23.5186,VALID,79,VALID,0.146094,
2008-11-02, 03:13:04,VALID,1008.97,VALID,0,VALID,94.3534,VALID,0,VALID,23.5186,VALID,79,VALID,0.200781,
2008-11-02, 03:14:04,VALID,1009,VALID,0,VALID,94.2924,VALID,0,VALID,23.5576,VALID,79,VALID,0.373047,
2008-11-02, 03:15:04,VALID,1009.01,VALID,0,VALID,94.2619,VALID,0,VALID,23.5381,VALID,79,VALID,0.0335938,
2008-11-02, 03:16:04,VALID,1009.01,VALID,0,VALID,94.2467,VALID,0,VALID,23.4992,VALID,79,VALID,0.0875,
2008-11-02, 03:17:04,VALID,1009.01,VALID,0,VALID,94.1628,VALID,0,VALID,23.4992,VALID,79,VALID,0.2875,
2008-11-02, 03:18:04,VALID,1009.01,VALID,0,VALID,94.056,VALID,0,VALID,23.4407,VALID,79,VALID,0.275,
2008-11-02, 03:19:04,VALID,1009.03,VALID,0,VALID,94.0027,VALID,0,VALID,23.4407,VALID,79,VALID,0.246094,
2008-11-02, 03:20:04,VALID,1009.02,VALID,0,VALID,94.0408,VALID,0,VALID,23.4407,VALID,79,VALID,0.208594,
2008-11-02, 03:21:04,VALID,1009.04,VALID,0,VALID,94.1094,VALID,0,VALID,23.4602,VALID,79,VALID,0.160938,
2008-11-02, 03:22:04,VALID,1009.07,VALID,0,VALID,94.1781,VALID,0,VALID,23.4797,VALID,79,VALID,0,
2008-11-02, 03:23:04,VALID,1009.09,VALID,0,VALID,94.2314,VALID,0,VALID,23.4797,VALID,77,VALID,0.307031,
2008-11-02, 03:24:04,VALID,1009.12,VALID,0,VALID,94.2391,VALID,0,VALID,23.4797,VALID,76,VALID,0.217187,
2008-11-02, 03:25:04,VALID,1009.14,VALID,0,VALID,94.2086,VALID,0,VALID,23.4797,VALID,47,VALID,0.286719,
2008-11-02, 03:26:04,VALID,1009.14,VALID,0,VALID,94.1781,VALID,0,VALID,23.5009,VALID,47,VALID,0.1125,
2008-11-02, 03:27:04,VALID,1009.18,VALID,0,VALID,94.1933,VALID,0,VALID,23.4797,VALID,47,VALID,0.0953125,
2008-11-02, 03:28:04,VALID,1009.19,VALID,0,VALID,94.1857,VALID,0,VALID,23.4602,VALID,47,VALID,0,
2008-11-02, 03:29:04,VALID,1009.21,VALID,0,VALID,94.1933,VALID,0,VALID,23.4389,VALID,47,VALID,0.0015625,
2008-11-02, 03:30:04,VALID,1009.18,VALID,0,VALID,94.1704,VALID,0,VALID,23.4407,VALID,47,VALID,0,
2008-11-02, 03:31:04,VALID,1009.19,VALID,0,VALID,94.1704,VALID,0,VALID,23.4815,VALID,47,VALID,0,
2008-11-02, 03:32:04,VALID,1009.15,VALID,0,VALID,94.1704,VALID,0,VALID,23.4407,VALID,47,VALID,0,
2008-11-02, 03:33:04,VALID,1009.15,VALID,0,VALID,94.1781,VALID,0,VALID,23.4212,VALID,47,VALID,0,
2008-11-02, 03:34:04,VALID,1009.12,VALID,0,VALID,94.1857,VALID,0,VALID,23.423,VALID,47,VALID,0,
2008-11-02, 03:35:04,VALID,1009.11,VALID,0,VALID,94.2009,VALID,0,VALID,23.4212,VALID,47,VALID,0.230859,
2008-11-02, 03:36:04,VALID,1009.11,VALID,0,VALID,94.2391,VALID,0,VALID,23.4212,VALID,47,VALID,0.119922,
2008-11-02, 03:37:04,VALID,1009.11,VALID,0,VALID,94.2619,VALID,0,VALID,23.4212,VALID,47,VALID,0.246094,
2008-11-02, 03:38:04,VALID,1009.12,VALID,0,VALID,94.2543,VALID,0,VALID,23.4194,VALID,47,VALID,0.235156,
2008-11-02, 03:39:04,VALID,1009.15,VALID,0,VALID,94.2696,VALID,0.105969,VALID,23.4194,VALID,47,VALID,0.183594,
2008-11-02, 03:40:04,VALID,1009.11,VALID,0,VALID,94.2848,VALID,0.105969,VALID,23.4584,VALID,47,VALID,0,
2008-11-02, 03:41:04,VALID,1009.13,VALID,0,VALID,94.3077,VALID,0.105969,VALID,23.4194,VALID,47,VALID,0,
2008-11-02, 03:42:04,VALID,1009.09,VALID,0,VALID,94.3077,VALID,0.105969,VALID,23.4389,VALID,47,VALID,0,
2008-11-02, 03:43:04,VALID,1009.1,VALID,0,VALID,94.3382,VALID,0.105969,VALID,23.4407,VALID,50,VALID,0.369531,
2008-11-02, 03:44:04,VALID,1009.05,VALID,0,VALID,94.3382,VALID,0.105969,VALID,23.4602,VALID,71,VALID,0.286719,
2008-11-02, 03:45:04,VALID,1009.06,VALID,0,VALID,94.3611,VALID,0.105969,VALID,23.4389,VALID,71,VALID,0.295312,
2008-11-02, 03:46:04,VALID,1009.07,VALID,0,VALID,94.3458,VALID,0.105969,VALID,23.4389,VALID,71,VALID,0,
2008-11-02, 03:47:04,VALID,1009.05,VALID,0,VALID,94.3229,VALID,0,VALID,23.4602,VALID,71,VALID,0,
2008-11-02, 03:48:04,VALID,1009.07,VALID,0,VALID,94.3153,VALID,0.105969,VALID,23.4779,VALID,71,VALID,0.100391,
2008-11-02, 03:49:04,VALID,1009.09,VALID,0,VALID,94.3153,VALID,0.105969,VALID,23.4797,VALID,71,VALID,0,